Theta_e
322 323 324 324 324 324 323 323 322 321 321 321 321 323 325 324 322 300 295 304 313 332 328 309 302 300 301 299 300 298 290 286 287 288 290 293 292 295 296 295 295 297 296 299 300
322 323 324 324 323 323 323 322 322 321 321 321 323 324 324 322 306 298 315 325 331 333 303 300 297 298 296 295 295 294 289 290 292 292 291 294 294 294 293 293 294 295 299 299 299
322 323 323 323 323 323 322 322 322 322 322 323 323 323 323 316 298 296 325 329 331 328 306 302 300 298 293 292 292 293 290 293 293 295 295 293 292 295 293 291 294 294 297 298 297
323 323 322 322 323 323 322 322 322 322 323 323 323 322 322 305 290 297 325 326 327 312 305 301 298 294 291 290 291 290 292 293 294 296 294 291 293 291 294 295 296 297 299 298 297
323 323 322 322 322 322 322 322 322 323 323 323 322 322 308 295 295 301 322 315 306 304 300 298 294 293 290 290 291 291 291 293 294 295 294 294 292 292 293 296 297 297 299 298 298
323 322 322 321 321 321 322 322 322 323 322 322 322 320 300 293 299 301 302 303 303 301 298 298 296 296 292 290 290 291 291 292 294 294 294 293 292 292 295 296 295 297 297 298 298
323 321 321 321 321 321 321 322 322 322 322 322 322 308 297 298 300 301 302 301 302 301 298 298 299 296 294 290 293 290 288 289 290 292 293 293 289 291 296 295 295 295 296 297 298
322 321 320 320 320 320 321 321 321 320 320 321 321 300 295 303 300 301 301 301 302 301 300 299 299 297 293 292 292 287 287 285 288 293 292 291 287 292 293 294 295 295 296 296 297
321 321 320 320 320 320 320 320 321 320 320 320 301 296 295 308 299 300 299 299 299 300 300 302 299 293 293 288 285 285 282 283 287 292 291 289 287 292 292 293 293 294 294 295 295
321 320 320 320 320 319 319 319 318 314 310 305 301 293 297 296 299 300 299 300 297 298 299 297 294 289 288 286 282 282 282 283 283 287 288 287 288 293 293 293 293 292 293 294 295
320 319 319 319 319 319 310 302 299 298 299 296 295 295 298 300 301 300 300 298 298 296 290 292 289 286 288 287 286 285 283 283 285 288 286 286 287 290 294 290 290 290 291 292 294
319 318 319 319 319 316 305 299 298 300 293 299 299 298 299 299 296 299 300 294 293 290 291 289 287 289 291 289 286 285 283 283 286 287 287 286 286 291 293 291 290 290 290 292 293
318 318 318 318 317 308 302 301 305 304 292 295 298 298 298 299 295 297 298 294 291 289 290 287 288 291 289 286 285 284 283 283 285 286 285 284 284 286 289 289 290 291 291 293 293
317 317 317 317 307 304 300 305 306 304 289 291 295 297 299 298 294 300 297 294 291 289 289 289 290 289 287 286 287 282 286 286 285 283 280 284 280 284 288 288 289 290 291 291 292
316 317 317 315 302 299 302 306 306 300 280 293 296 302 299 295 295 296 297 294 289 290 289 288 288 287 286 288 288 286 287 285 284 281 279 280 279 284 284 288 287 288 287 290 291
315 316 316 308 305 304 307 306 303 290 280 290 296 294 294 295 295 296 294 295 294 289 288 289 290 289 289 289 288 288 286 285 283 281 277 281 281 282 285 286 287 287 288 290 291
315 315 313 309 302 306 307 302 290 284 292 290 291 294 292 292 293 293 291 289 288 284 284 287 288 288 289 286 286 286 284 280 278 277 278 280 279 284 287 286 286 286 287 289 291
314 313 311 310 307 307 304 295 283 287 289 294 292 292 290 292 291 291 289 287 289 288 284 283 283 288 289 288 286 284 284 281 277 277 277 280 279 285 286 287 287 286 285 284 283
313 306 305 309 308 306 297 286 285 287 292 291 291 288 288 290 290 288 287 287 289 289 287 282 284 287 287 287 288 284 282 285 282 277 276 280 282 286 286 286 285 283 282 281 281
304 302 302 309 307 301 293 290 289 293 293 291 288 290 286 288 286 286 286 289 289 290 289 286 283 286 285 286 285 285 287 281 280 277 275 278 279 283 283 286 284 282 280 280 281
301 299 302 308 304 296 287 288 291 296 294 292 289 288 288 287 287 285 287 290 291 289 289 287 285 284 284 283 284 282 281 282 283 281 277 276 280 286 287 287 284 280 280 280 280
301 294 303 304 295 288 287 289 296 293 292 292 290 290 288 288 286 285 287 291 292 291 287 288 284 281 283 286 286 284 284 285 282 279 282 279 284 287 286 285 282 279 280 281 282
299 299 305 303 290 288 290 292 294 293 292 290 289 291 289 288 286 287 288 293 292 290 287 288 283 279 282 282 285 283 284 284 287 285 284 280 282 284 284 281 280 280 281 282 281
301 293 296 297 293 288 289 291 291 296 294 293 291 290 288 287 289 287 288 292 291 291 297 294 285 284 282 284 285 282 284 285 287 283 283 284 286 285 284 283 280 281 283 282 280
301 296 294 290 291 290 291 294 293 293 296 295 292 290 290 286 286 287 289 290 292 295 292 291 287 286 288 289 289 288 287 287 285 287 283 286 288 291 290 286 283 284 281 279 278
293 294 293 293 295 293 294 293 293 295 295 295 294 295 295 293 293 291 293 293 292 290 288 289 287 287 285 287 287 285 287 288 288 288 288 288 288 294 281 286 282 281 280 278 277
290 292 292 288 290 290 290 287 288 287 292 292 289 289 290 294 294 296 299 298 297 295 290 289 287 285 283 288 288 284 288 288 289 289 289 285 290 279 280 281 279 279 278 276 275
Wind_Speed
7 7 7 7 7 7 7 7 7 7 7 7 8 9 10 11 12 0 2 4 3 8 3 4 1 3 3 3 3 3 4 3 5 6 4 2 4 3 1 4 3 6 4 1 7
8 8 8 7 7 7 7 7 7 7 6 7 8 8 8 8 2 3 3 4 6 3 2 5 2 3 3 2 2 4 3 7 4 5 4 4 5 4 2 4 5 4 2 4 8
9 9 8 8 8 8 8 8 7 6 6 7 8 8 8 5 2 4 2 5 5 1 2 1 0 1 1 1 0 3 4 3 3 4 4 3 2 4 5 7 9 10 7 8 6
9 9 8 9 9 9 8 8 7 7 7 7 8 9 8 1 3 3 4 4 4 5 3 0 1 2 2 2 1 0 2 3 2 3 3 3 1 3 8 10 4 11 6 9 12
12 11 10 10 10 10 9 9 8 8 7 8 8 8 2 2 6 1 4 5 3 3 2 3 3 3 2 2 0 2 2 3 2 4 4 0 6 6 11 11 8 4 9 13 13
14 12 11 9 9 10 9 9 9 8 8 8 8 6 0 3 2 2 3 1 3 3 1 1 4 4 3 2 3 1 2 4 3 3 3 3 2 2 7 1 7 8 10 10 12
17 15 12 11 10 10 9 9 9 8 7 7 6 1 1 8 1 1 2 1 2 2 3 2 3 2 3 1 1 1 4 5 5 3 4 3 5 11 9 1 5 9 8 9 11
18 16 14 12 10 9 9 9 9 8 8 7 3 1 6 0 1 1 1 1 2 1 3 3 2 4 1 2 5 3 4 4 1 4 1 2 10 6 7 6 9 8 8 9 10
19 17 16 14 12 9 9 9 9 7 6 5 0 2 7 0 1 1 0 1 1 1 2 2 4 3 3 3 4 5 2 3 8 6 2 4 10 7 3 6 10 9 9 9 7
20 18 17 15 12 10 10 5 0 1 0 1 1 3 2 2 1 0 1 2 2 2 2 4 5 3 3 3 5 4 3 4 6 1 2 4 17 18 11 10 14 10 10 10 9
21 20 19 17 13 9 3 2 4 3 1 7 4 3 2 1 1 1 1 2 2 4 3 2 2 7 8 7 2 2 2 5 5 3 3 7 11 20 14 8 11 9 9 9 11
22 22 21 18 13 7 3 5 1 1 7 4 4 4 3 2 2 3 2 3 2 4 2 4 7 4 3 4 2 2 2 6 6 2 3 7 12 18 21 9 7 5 8 9 7
24 23 22 19 10 5 4 2 1 1 1 5 4 3 2 5 3 3 5 2 3 3 6 6 2 4 3 3 3 3 5 4 6 5 2 7 9 7 5 3 4 4 4 6 11
24 23 22 21 4 1 2 1 1 0 4 4 2 2 2 2 3 1 1 2 1 5 5 6 1 4 3 4 7 3 5 3 1 3 4 4 10 7 8 10 6 6 4 5 7
24 23 20 9 1 2 2 1 0 2 5 2 2 1 1 3 1 1 1 2 4 4 4 7 6 5 5 7 8 6 2 2 1 2 3 2 0 11 3 7 5 6 1 2 5
24 22 17 2 2 0 1 1 2 7 8 1 2 1 1 2 2 2 1 3 1 0 2 7 1 5 7 2 4 5 3 4 4 3 2 5 7 6 4 3 5 5 5 6 4
26 22 5 0 1 1 1 2 6 4 3 3 4 3 2 3 3 5 4 3 6 2 4 2 5 2 3 4 1 3 5 4 5 2 7 4 2 10 4 3 3 4 7 7 7
27 13 3 1 1 1 2 6 4 5 6 2 2 1 5 5 5 3 1 4 6 3 2 4 8 8 5 6 8 6 8 7 7 5 5 2 9 8 3 5 6 7 7 8 9
22 4 2 3 1 2 5 2 9 7 3 2 1 3 4 3 4 3 7 6 7 11 9 6 8 2 3 2 3 5 5 2 1 2 2 6 8 5 4 4 5 6 7 7 7
4 4 3 4 2 4 5 6 6 4 1 1 7 7 7 4 3 4 5 4 5 9 1 3 6 2 2 2 2 3 3 4 2 4 7 7 7 9 8 8 6 5 6 5 6
4 5 3 4 3 5 4 8 6 5 4 7 6 5 8 6 7 6 6 4 4 3 4 4 5 3 4 7 10 2 2 2 2 5 5 5 9 6 7 9 10 7 6 5 5
4 4 3 3 3 1 3 5 4 4 1 5 3 7 7 7 6 7 9 8 7 8 8 7 5 6 13 3 2 4 9 10 7 7 5 3 20 3 2 5 10 9 8 6 7
5 4 4 3 2 3 5 5 4 3 5 3 4 7 3 6 4 8 6 6 7 9 10 7 4 5 9 2 3 5 5 5 2 2 19 8 11 2 5 6 7 12 10 10 9
3 5 5 3 1 1 4 6 5 3 5 5 5 2 2 5 7 5 4 4 6 6 6 7 7 9 18 12 4 5 7 8 12 9 8 21 22 8 8 10 9 10 10 10 9
2 4 2 4 3 3 3 5 14 13 5 2 3 5 6 5 4 8 6 5 5 6 6 8 19 10 19 20 15 18 19 12 16 16 13 21 18 21 14 18 17 13 13 13 10
4 5 7 5 8 9 7 7 14 13 11 15 14 14 18 21 17 21 17 16 15 3 6 5 15 9 20 13 13 19 26 22 24 26 22 25 32 19 5 10 12 13 13 11 10
4 4 3 5 7 9 4 9 12 11 9 11 19 18 11 14 20 20 19 18 20 13 8 6 6 6 17 15 16 19 27 27 23 19 20 23 29 8 6 10 11 12 11 11 9
Wind_Direction
318 308 308 303 295 294 290 293 293 285 280 298 307 307 311 317 309 300 260 239 289 305 335 274 94 23 50 82 77 133 69 192 214 158 234 169 183 187 150 140 220 201 176 328 129
330 329 321 309 304 302 298 292 288 290 301 305 302 307 315 324 293 286 251 288 284 317 38 44 45 10 40 69 31 92 125 218 189 189 200 198 182 192 176 200 242 237 173 103 131
341 335 326 324 320 308 297 288 288 296 299 306 310 312 324 319 338 233 284 319 315 156 125 103 204 103 79 71 296 169 195 202 230 204 178 193 227 193 186 243 213 211 189 160 160
343 337 338 333 324 311 299 296 296 296 305 305 307 315 331 55 230 228 309 334 349 116 126 165 69 105 135 212 205 237 231 201 234 205 156 208 213 242 197 228 186 221 159 161 174
350 350 348 337 321 310 309 303 298 295 296 299 308 325 324 253 251 245 353 356 96 111 94 181 172 148 204 195 245 187 244 215 244 185 234 178 243 238 255 241 237 146 160 179 187
358 352 343 329 319 314 306 300 298 295 295 301 306 316 261 265 138 23 344 78 70 100 112 95 173 180 137 191 176 233 259 266 272 226 238 227 252 120 266 132 199 175 193 190 193
358 351 342 333 322 306 290 283 284 284 287 292 307 326 255 237 159 322 31 144 92 130 137 167 137 129 131 204 248 194 320 308 215 211 233 168 272 230 237 170 189 210 205 201 209
357 353 346 336 321 302 289 277 275 277 278 276 304 137 241 211 211 46 354 96 42 71 110 144 137 109 107 152 18 42 56 2 218 152 278 148 270 277 214 181 237 223 212 209 207
352 353 347 337 324 311 292 280 274 269 254 281 250 162 272 62 254 180 79 186 5 74 60 94 77 102 48 95 9 6 241 235 312 198 140 175 273 247 135 211 248 231 221 213 209
347 349 344 337 329 314 300 270 135 262 175 143 36 23 276 234 185 166 53 100 123 92 50 50 51 77 44 95 228 228 280 249 239 240 208 250 266 279 236 222 242 245 222 208 202
347 347 345 341 332 335 19 37 15 317 41 197 193 227 247 245 116 199 146 104 98 70 196 8 74 222 221 202 171 149 197 250 253 267 269 232 268 283 285 229 254 247 225 209 207
345 345 344 340 332 346 60 77 72 226 307 221 242 266 230 156 297 228 138 168 160 208 121 18 237 220 117 141 142 150 246 262 282 280 195 305 276 276 282 264 233 235 226 206 165
343 343 342 337 326 39 68 92 335 250 235 289 208 206 204 149 236 230 155 153 179 187 195 185 243 117 134 155 182 218 197 229 236 333 267 323 282 307 295 272 273 242 227 197 187
341 339 339 330 53 284 47 300 30 148 46 256 242 259 109 130 276 118 52 154 229 210 169 231 259 172 178 230 154 269 206 170 252 39 255 5 288 304 291 300 272 270 211 211 181
336 335 336 353 215 55 311 325 166 65 354 196 198 157 106 176 82 210 337 65 221 200 131 254 168 184 196 218 163 223 105 137 95 152 11 280 146 268 310 304 343 344 300 169 186
334 333 332 15 41 358 327 312 47 41 261 259 137 203 178 174 224 108 114 59 66 147 244 245 302 188 211 127 166 134 96 60 60 99 316 216 166 274 231 227 312 2 62 55 86
332 331 327 12 267 326 40 43 30 151 329 245 235 180 229 219 238 178 179 187 191 142 251 282 222 225 166 124 48 124 70 320 329 3 229 147 180 242 239 321 288 328 68 45 48
329 325 304 251 336 39 57 49 203 243 242 334 92 106 220 168 241 189 179 263 227 133 126 204 310 181 178 200 183 178 169 167 243 226 260 127 240 249 131 86 74 66 74 54 43
326 332 13 335 335 56 76 122 210 211 241 205 16 213 265 246 198 170 214 218 218 174 184 176 265 153 189 150 148 179 185 198 152 115 355 226 285 277 140 111 86 78 67 56 49
323 342 290 311 358 60 81 233 241 215 196 163 205 180 222 220 186 184 210 205 238 193 60 220 292 193 140 114 41 163 166 79 9 245 245 270 268 240 224 201 157 124 95 75 64
27 358 268 338 76 55 202 231 273 253 204 189 226 248 222 219 205 211 235 258 212 143 173 156 162 241 128 196 184 131 219 216 174 171 209 267 259 214 218 182 169 143 118 95 76
358 338 315 355 19 100 221 214 291 280 162 266 222 220 208 208 225 234 224 220 175 155 177 210 170 233 217 237 194 193 203 177 199 233 239 255 264 7 61 120 130 133 126 110 101
322 277 312 76 224 252 283 277 250 258 229 221 259 212 182 215 242 204 224 246 185 168 179 186 218 311 310 21 13 228 209 216 315 13 241 236 253 110 110 117 138 144 147 142 123
292 307 302 50 89 212 289 266 269 290 267 242 253 200 176 239 230 265 231 266 199 224 204 157 188 201 252 248 147 208 220 211 219 236 243 233 264 208 200 182 168 161 152 138 132
238 255 311 297 321 309 318 294 293 289 226 276 273 225 234 271 259 236 237 277 234 232 209 180 255 230 256 260 258 259 257 229 227 233 241 262 240 254 214 194 182 158 143 142 133
334 349 350 315 312 283 285 263 291 307 307 273 268 309 301 268 260 276 281 271 263 183 197 203 246 219 255 259 240 253 252 245 245 248 250 251 259 264 57 123 151 155 148 141 122
334 339 303 315 316 308 322 2 344 5 297 352 343 322 310 310 331 316 293 265 258 230 213 185 232 196 258 269 261 250 245 245 247 242 232 243 251 123 153 144 142 137 126 119 110